Probability
0 0 0 0 0 0 0 0 0 0 0 0 0 0 0 0 0 0 0 0 0 0 0 0 0 0 3 6 6 0 0 3 0 0 0 0 0 0 0 0 0 0 0 0
0 0 0 0 0 0 0 0 0 0 0 0 0 0 0 0 0 0 0 0 0 0 0 0 0 0 3 6 3 0 0 3 0 0 0 0 0 0 0 0 0 0 0 0
0 0 0 0 0 0 0 0 0 0 0 0 0 0 0 0 0 0 0 0 0 0 0 0 0 3 3 0 0 0 0 3 0 0 0 0 0 0 0 0 0 0 0 0
0 0 0 0 0 0 0 0 0 0 0 0 0 0 0 0 0 0 0 0 0 0 0 0 0 0 0 3 0 0 3 3 0 0 0 0 0 0 0 0 0 0 0 0
0 0 0 0 0 0 0 0 0 0 0 0 0 0 0 0 0 0 0 0 0 0 0 0 0 0 0 0 0 0 3 3 0 0 0 0 0 0 0 0 0 0 0 0
0 0 0 0 0 0 0 0 0 0 0 0 0 0 0 0 0 0 0 0 0 0 0 0 0 0 0 0 0 0 0 3 0 0 0 0 0 0 0 0 0 0 0 0
0 0 0 0 0 0 0 0 0 0 0 0 0 0 0 0 0 0 0 0 0 0 0 0 0 0 0 0 0 0 0 0 0 0 0 0 0 0 0 0 0 0 0 0
0 0 0 0 0 0 0 0 0 0 0 0 0 0 0 0 0 0 0 0 0 0 0 0 0 0 0 0 0 0 0 0 0 0 0 0 0 0 0 0 0 0 0 0
0 0 0 0 0 0 0 0 0 0 0 0 0 0 0 0 0 0 0 0 0 0 0 0 0 0 0 0 0 0 0 0 0 0 0 0 0 0 0 0 0 0 0 0
0 0 0 0 0 0 0 0 0 0 0 0 0 0 0 0 0 0 0 0 0 0 0 0 0 0 0 0 0 0 0 0 0 0 0 0 0 0 0 0 0 0 0 0
0 0 0 0 0 0 0 0 0 0 0 0 0 0 0 0 0 0 0 0 0 0 0 0 0 0 0 0 0 0 0 0 0 0 0 0 0 0 0 0 0 0 0 0
0 0 0 0 0 0 0 0 0 0 0 0 0 0 0 0 0 0 0 0 0 0 0 0 0 0 0 0 0 0 0 0 0 0 0 0 0 0 0 0 0 0 0 0
0 0 0 0 0 0 0 0 0 0 0 0 0 0 0 0 0 0 0 0 0 0 0 0 0 0 0 0 0 0 0 0 0 0 0 0 0 0 0 0 0 0 0 0
0 0 0 0 0 0 0 0 0 0 0 0 0 0 0 0 0 0 0 0 0 0 0 0 0 0 0 0 0 0 0 0 0 0 0 0 0 0 0 0 0 0 0 0
0 0 0 0 0 0 0 0 0 0 0 0 0 0 0 0 0 0 0 0 0 0 0 0 0 0 0 0 0 0 0 0 0 0 0 0 0 0 0 0 0 0 0 0
0 0 0 0 0 0 0 0 0 0 0 0 0 0 0 0 0 0 0 0 0 0 0 0 0 0 0 0 0 0 0 0 0 0 0 0 0 0 0 0 0 0 0 0
0 0 0 0 0 0 0 0 0 0 0 0 0 0 0 0 0 0 0 0 0 0 0 0 0 0 0 0 0 0 0 0 0 0 0 0 0 0 0 0 0 0 0 0
0 0 0 0 0 0 0 0 0 0 0 0 0 0 0 0 0 0 0 0 0 0 0 0 0 0 0 0 0 0 0 0 0 0 0 0 0 0 0 0 0 0 0 0
0 0 0 0 0 0 0 0 0 0 0 0 0 0 0 0 0 0 0 0 0 0 0 0 0 0 0 0 0 0 0 0 0 0 0 0 0 0 0 0 0 0 0 0
0 0 0 0 0 0 0 0 0 0 0 0 0 0 0 0 0 0 0 0 0 0 0 0 0 0 0 0 0 0 0 0 0 0 0 0 0 0 0 0 0 0 0 0
0 0 0 0 0 0 0 0 0 0 0 0 0 0 0 0 0 0 0 0 0 0 0 0 0 0 0 0 0 0 0 0 0 0 0 0 0 0 0 0 0 0 0 0
0 0 0 0 0 0 0 0 0 0 0 0 0 0 0 0 0 0 0 0 0 0 0 0 0 0 0 0 0 0 0 0 0 0 0 0 0 0 0 0 0 0 0 0
0 0 0 0 0 0 0 0 0 0 0 0 0 0 0 0 0 0 0 0 0 0 0 0 0 0 0 0 0 0 0 0 0 0 0 0 0 0 0 0 0 0 0 0
0 0 0 0 0 0 0 0 0 0 0 0 0 0 0 0 0 0 0 0 0 0 0 0 0 0 0 0 0 0 0 0 0 0 0 0 0 0 0 0 0 0 0 0
0 0 0 0 0 0 0 0 0 0 0 0 0 0 0 0 0 0 0 0 0 0 0 0 0 0 0 0 0 0 0 0 0 0 0 0 0 0 0 0 0 0 0 0
0 0 0 0 0 0 0 0 0 0 0 0 0 0 0 0 0 0 0 0 0 0 0 0 0 0 0 0 0 0 0 0 0 0 0 0 0 0 0 0 0 0 0 0
Height
5670 5667 5662 5658 5654 5651 5647 5644 5642 5640 5637 5633 5630 5628 5627 5625 5623 5623 5623 5624 5626 5630 5634 5638 5641 5645 5648 5652 5656 5660 5664 5668 5672 5677 5683 5689 5695 5701 5707 5713 5720 5726 5733 5739
5664 5660 5655 5651 5647 5644 5640 5637 5635 5633 5630 5625 5621 5620 5618 5616 5615 5613 5613 5614 5616 5619 5623 5626 5629 5633 5636 5639 5644 5648 5651 5656 5661 5666 5672 5677 5683 5689 5695 5701 5708 5716 5722 5728
5657 5654 5648 5644 5641 5637 5634 5630 5627 5624 5622 5618 5613 5612 5612 5609 5606 5605 5604 5605 5606 5609 5613 5616 5619 5622 5625 5628 5632 5636 5640 5644 5649 5655 5660 5665 5671 5677 5683 5690 5698 5705 5712 5718
5652 5647 5642 5638 5634 5630 5628 5624 5619 5616 5612 5610 5606 5601 5605 5602 5599 5597 5596 5596 5597 5600 5603 5606 5609 5612 5615 5619 5622 5626 5629 5633 5639 5644 5649 5655 5660 5666 5673 5680 5687 5694 5702 5708
5646 5641 5637 5633 5629 5624 5620 5617 5613 5609 5605 5602 5599 5593 5596 5595 5592 5590 5589 5589 5590 5592 5595 5598 5600 5603 5606 5609 5612 5616 5619 5623 5628 5633 5639 5644 5651 5657 5663 5669 5676 5684 5691 5698
5640 5635 5631 5627 5623 5618 5613 5610 5606 5602 5599 5595 5593 5587 5587 5586 5585 5583 5582 5582 5583 5585 5588 5590 5592 5594 5597 5601 5603 5606 5610 5614 5618 5623 5629 5635 5641 5647 5653 5660 5667 5674 5681 5688
5634 5629 5625 5621 5616 5613 5608 5603 5598 5594 5591 5589 5585 5581 5581 5580 5578 5576 5576 5576 5577 5579 5581 5582 5584 5587 5589 5592 5594 5597 5600 5604 5609 5614 5619 5626 5632 5638 5644 5652 5658 5665 5672 5679
5626 5624 5619 5614 5610 5606 5602 5598 5593 5588 5583 5581 5579 5576 5577 5574 5572 5570 5569 5570 5571 5572 5573 5575 5577 5578 5580 5582 5585 5589 5592 5596 5600 5606 5611 5617 5623 5629 5636 5643 5649 5655 5663 5670
5618 5616 5613 5608 5603 5599 5595 5591 5588 5582 5577 5574 5572 5571 5571 5569 5565 5563 5563 5563 5563 5565 5567 5568 5570 5571 5573 5575 5578 5581 5584 5588 5592 5597 5603 5609 5614 5620 5627 5633 5639 5646 5653 5660
5610 5607 5606 5602 5598 5594 5590 5585 5581 5576 5570 5566 5565 5565 5565 5562 5559 5557 5557 5557 5557 5559 5560 5562 5563 5564 5566 5568 5570 5573 5576 5579 5583 5588 5594 5600 5606 5611 5618 5624 5630 5637 5644 5651
5602 5599 5598 5595 5591 5587 5584 5580 5575 5570 5566 5561 5556 5560 5559 5556 5553 5552 5551 5551 5551 5552 5553 5554 5555 5556 5558 5559 5562 5565 5567 5571 5575 5580 5585 5591 5597 5602 5609 5615 5621 5628 5635 5642
5594 5591 5589 5588 5584 5580 5576 5573 5569 5565 5561 5556 5550 5554 5553 5550 5547 5546 5545 5545 5545 5546 5546 5546 5547 5549 5550 5552 5554 5556 5559 5563 5567 5572 5578 5583 5588 5594 5600 5606 5613 5619 5626 5634
5586 5583 5580 5579 5578 5573 5569 5566 5562 5558 5554 5550 5545 5547 5546 5543 5540 5539 5538 5538 5538 5538 5538 5539 5540 5542 5543 5545 5546 5549 5552 5555 5560 5564 5570 5575 5580 5585 5591 5598 5604 5610 5617 5624
5577 5575 5573 5571 5567 5564 5561 5559 5555 5550 5546 5543 5541 5539 5540 5537 5533 5532 5531 5531 5530 5530 5530 5531 5533 5534 5535 5536 5538 5541 5544 5548 5552 5556 5561 5566 5572 5577 5582 5588 5594 5601 5608 5615
5568 5566 5564 5562 5559 5555 5552 5550 5547 5542 5539 5535 5534 5532 5532 5529 5526 5525 5524 5523 5523 5522 5523 5523 5524 5526 5527 5528 5530 5532 5535 5539 5543 5548 5552 5557 5563 5568 5573 5579 5585 5592 5599 5606
5558 5555 5553 5552 5550 5546 5543 5543 5539 5534 5531 5527 5524 5524 5524 5520 5519 5518 5517 5515 5515 5515 5515 5515 5516 5517 5517 5519 5521 5524 5527 5530 5534 5539 5543 5548 5553 5559 5564 5570 5576 5583 5590 5596
5549 5545 5542 5541 5540 5535 5535 5536 5530 5526 5523 5520 5517 5517 5515 5513 5512 5511 5509 5508 5507 5507 5506 5506 5507 5507 5508 5510 5512 5514 5518 5521 5525 5529 5534 5539 5544 5550 5555 5561 5567 5574 5580 5586
5539 5535 5531 5529 5528 5525 5529 5525 5521 5516 5515 5512 5509 5508 5506 5505 5503 5502 5501 5500 5499 5499 5498 5498 5498 5498 5499 5500 5502 5505 5508 5512 5516 5520 5524 5529 5534 5540 5546 5552 5558 5564 5571 5577
5528 5525 5521 5518 5514 5513 5518 5515 5510 5506 5507 5505 5501 5499 5498 5496 5495 5495 5492 5491 5490 5490 5490 5490 5489 5489 5490 5491 5492 5495 5498 5502 5506 5510 5515 5519 5525 5531 5537 5543 5550 5556 5562 5568
5517 5514 5511 5507 5503 5503 5509 5505 5500 5497 5497 5496 5492 5490 5489 5487 5486 5486 5484 5482 5481 5481 5481 5481 5481 5481 5481 5481 5483 5485 5489 5493 5497 5501 5506 5511 5516 5522 5529 5535 5541 5547 5553 5559
5505 5502 5500 5497 5492 5492 5497 5493 5490 5488 5488 5485 5483 5481 5479 5477 5476 5475 5474 5473 5472 5472 5471 5472 5472 5471 5472 5472 5474 5476 5479 5483 5487 5492 5497 5502 5507 5513 5520 5526 5531 5537 5543 5550
5493 5491 5489 5486 5483 5486 5485 5482 5480 5478 5476 5475 5473 5471 5470 5468 5466 5465 5465 5464 5463 5462 5462 5462 5462 5462 5462 5463 5465 5467 5470 5474 5478 5482 5488 5493 5498 5504 5510 5516 5522 5528 5534 5540
5481 5480 5477 5475 5476 5475 5473 5470 5469 5467 5466 5464 5462 5461 5460 5458 5457 5456 5455 5454 5453 5453 5453 5452 5453 5453 5453 5454 5456 5458 5461 5465 5469 5473 5478 5483 5489 5494 5501 5507 5512 5518 5524 5531
5469 5468 5464 5463 5464 5464 5461 5459 5458 5456 5454 5453 5452 5451 5449 5448 5447 5446 5445 5444 5444 5443 5443 5443 5443 5443 5444 5445 5447 5449 5452 5455 5459 5464 5469 5473 5479 5484 5491 5497 5503 5509 5515 5521
5457 5455 5452 5451 5453 5451 5450 5449 5447 5445 5444 5443 5442 5440 5439 5438 5437 5436 5436 5435 5435 5434 5433 5433 5433 5434 5435 5436 5438 5441 5444 5447 5451 5455 5460 5464 5469 5474 5480 5486 5492 5499 5506 5511
5447 5444 5441 5440 5441 5438 5438 5438 5436 5435 5434 5432 5431 5430 5429 5428 5427 5427 5426 5426 5425 5425 5424 5424 5424 5425 5426 5428 5430 5432 5435 5438 5442 5447 5451 5455 5460 5465 5470 5476 5483 5488 5495 5501
Wind_Speed
30 30 29 29 29 29 30 31 31 31 32 34 34 33 33 33 35 37 38 39 42 43 43 42 43 43 44 45 45 45 46 48 49 49 50 50 51 52 52 53 53 51 51 50
29 30 29 29 29 29 31 31 32 32 31 34 34 32 32 32 32 34 35 37 39 40 40 39 40 42 42 43 44 44 45 47 49 49 49 49 50 51 52 51 51 51 51 50
29 30 29 29 29 29 30 32 32 34 33 34 34 32 28 29 30 31 31 33 35 37 38 36 37 39 40 41 42 43 44 46 47 47 49 49 49 50 52 51 51 51 52 51
30 30 29 29 30 32 31 31 32 34 35 34 35 35 29 28 28 29 30 31 33 33 35 35 34 35 37 39 40 41 43 45 46 46 48 49 49 48 50 51 51 51 51 51
30 29 30 30 31 32 31 31 32 33 34 33 32 34 29 28 27 27 28 29 30 30 31 33 33 34 34 36 38 39 41 43 45 46 46 48 49 48 48 50 50 51 51 49
31 31 31 31 31 31 32 32 32 32 32 32 31 33 30 27 27 26 26 27 27 27 29 31 33 33 34 36 38 39 40 42 45 46 47 48 48 47 47 48 49 51 50 51
32 32 32 32 31 31 32 32 32 32 33 32 31 32 30 29 27 25 25 25 26 26 27 29 31 32 33 35 37 38 39 40 43 45 46 46 47 46 47 48 48 49 49 49
33 33 32 32 32 32 32 31 31 32 33 32 31 31 28 27 26 24 24 24 24 26 27 29 30 31 33 34 35 37 38 40 42 44 44 44 45 45 46 47 46 47 47 48
34 33 32 32 32 33 33 32 31 32 32 32 31 29 27 25 24 24 24 24 25 25 26 27 28 30 32 33 34 36 37 39 41 44 45 46 45 45 46 46 46 48 47 47
34 34 33 32 32 32 31 31 31 31 33 34 33 30 27 24 24 24 24 24 25 27 27 27 28 29 31 33 34 35 37 39 40 41 43 43 45 46 47 47 47 48 48 48
34 35 34 33 33 32 31 31 31 31 32 34 35 32 27 26 25 25 25 25 25 25 27 27 28 29 30 31 33 35 36 38 39 40 42 42 42 44 45 45 46 48 48 48
33 34 34 33 33 33 32 31 31 31 32 33 34 33 27 27 27 26 26 26 26 27 28 28 27 28 29 30 32 35 36 38 39 40 40 40 41 43 45 44 45 46 47 47
34 34 34 34 33 33 32 31 31 31 33 33 34 32 28 27 27 26 26 26 26 27 29 29 29 29 30 30 33 35 36 38 39 40 40 39 40 43 45 45 44 45 47 47
36 35 34 34 33 33 33 32 31 32 33 33 33 32 28 28 27 27 27 28 28 28 28 29 30 31 31 32 33 34 37 40 41 40 39 41 42 42 44 45 45 46 48 48
37 37 36 35 33 34 34 33 32 32 33 34 32 32 29 30 29 28 27 28 28 29 29 30 30 31 33 33 35 37 37 40 42 42 40 40 42 43 43 45 45 45 47 48
38 38 37 36 35 36 36 34 33 34 34 34 34 31 29 29 28 28 28 28 28 28 29 30 31 32 33 34 35 37 39 41 42 42 41 42 42 43 44 46 47 46 46 46
39 39 39 38 36 38 37 33 34 34 34 33 33 31 30 28 28 28 29 29 28 28 28 29 31 32 33 34 36 37 39 40 41 41 42 43 43 44 44 45 47 48 46 44
40 39 39 39 39 39 36 33 33 33 32 31 31 30 30 29 28 28 29 29 28 28 28 29 30 30 32 34 35 38 40 40 42 42 42 43 44 45 46 46 46 47 48 46
39 39 40 40 40 40 35 33 33 33 31 30 31 31 30 29 29 28 29 29 28 28 29 29 30 30 32 33 35 37 39 40 40 42 42 43 44 45 47 47 46 45 46 47
39 39 40 40 41 41 36 34 34 34 32 30 31 31 30 30 30 29 30 30 30 29 28 29 30 30 31 32 34 35 37 39 40 41 42 43 43 45 46 45 44 44 45 46
41 41 41 40 41 41 36 34 33 33 32 31 31 30 30 30 30 29 29 29 29 29 29 29 29 29 30 31 33 35 36 37 40 41 42 42 43 45 45 44 43 43 44 45
42 41 40 40 41 39 35 34 33 33 33 32 32 31 31 31 30 30 29 29 29 29 29 30 30 30 30 31 32 34 35 36 38 39 41 42 43 44 44 43 44 45 45 45
42 41 40 40 40 36 35 35 34 33 33 32 32 32 32 31 30 30 30 30 30 30 30 30 30 30 31 31 32 33 34 35 36 37 39 41 43 43 43 43 43 44 44 45
41 39 39 39 37 35 35 34 33 34 33 33 32 32 31 31 30 30 30 29 28 28 29 30 30 30 30 31 31 32 33 33 34 36 38 40 42 43 43 43 43 44 44 44
39 39 39 39 36 36 34 34 34 34 34 33 33 32 32 32 31 30 30 29 28 28 28 29 29 30 30 30 30 31 32 32 32 34 36 38 40 41 43 44 44 44 43 43
36 37 38 38 35 35 34 33 34 34 34 34 33 32 32 31 31 30 30 29 29 29 28 29 29 29 29 29 30 30 31 31 31 31 32 35 37 39 41 43 44 44 43 43
Wind_Direction
310 308 304 302 303 301 299 294 294 294 294 291 287 287 284 278 275 272 264 258 254 249 246 245 247 247 247 247 245 244 241 238 235 236 236 235 234 233 233 233 233 232 232 231
313 311 307 305 304 303 302 298 297 296 293 293 291 289 286 282 278 273 265 259 255 250 245 246 248 247 247 246 243 243 241 237 235 235 235 235 234 233 232 233 231 231 231 231
315 314 310 307 305 304 302 302 300 298 294 294 293 290 289 284 280 273 269 264 259 250 246 246 246 245 246 246 244 242 241 237 235 234 234 233 232 231 231 230 231 230 230 230
314 312 310 308 307 308 306 302 301 300 300 299 296 293 290 287 281 274 272 265 258 252 248 246 248 248 247 244 242 241 240 237 234 234 234 232 230 230 229 229 230 229 229 230
312 311 310 309 309 309 307 304 300 301 302 301 299 295 291 287 283 277 272 265 259 253 249 248 248 247 246 243 241 240 239 236 233 231 231 230 229 229 228 229 229 228 228 229
310 311 312 310 309 309 308 305 303 302 302 303 302 298 293 290 289 281 273 265 259 253 250 250 247 246 246 244 242 239 239 236 232 229 229 229 229 228 227 228 229 229 229 229
311 311 312 311 310 309 309 307 305 304 303 305 304 299 297 293 290 281 274 266 257 251 252 250 248 246 246 244 241 239 237 235 231 228 227 227 228 227 226 227 228 228 228 228
310 310 311 312 312 310 308 307 306 305 304 304 303 301 300 295 287 280 275 269 260 253 252 251 249 246 246 245 242 239 237 234 230 228 226 226 227 226 227 226 227 228 228 228
309 308 310 311 310 309 308 305 305 303 302 302 304 304 300 294 284 278 273 270 264 255 254 253 251 249 246 243 239 238 237 234 231 229 227 227 227 229 228 228 229 229 229 229
307 307 308 309 308 305 305 306 306 305 304 302 302 304 304 294 286 279 274 273 268 259 253 252 249 248 246 242 240 238 235 233 230 229 227 228 229 229 228 230 230 229 230 230
305 306 308 307 307 306 305 306 306 304 302 300 299 301 303 294 287 281 275 273 270 263 256 255 252 249 248 244 239 236 233 231 230 228 228 228 229 228 227 229 229 229 229 230
303 305 305 305 304 303 302 304 303 300 299 298 297 300 300 294 287 281 276 272 269 269 264 259 253 250 248 245 240 236 233 231 229 228 228 228 229 229 228 230 229 229 228 229
299 301 303 302 302 301 301 300 298 296 295 294 294 299 298 291 285 279 278 275 271 269 265 258 253 252 249 245 241 236 232 230 229 229 229 228 228 229 229 228 228 228 228 228
294 296 299 300 299 297 297 296 295 294 294 292 292 292 290 287 284 281 278 276 275 270 263 260 257 253 250 248 243 238 233 230 229 230 231 230 230 230 229 227 227 227 227 227
291 292 295 295 294 293 293 294 293 292 292 290 291 290 290 285 283 281 278 276 273 269 265 262 260 256 251 248 245 240 236 232 230 231 232 231 231 230 228 227 226 226 227 227
290 290 291 291 291 290 291 293 291 290 289 288 288 289 287 282 281 280 278 276 272 268 267 264 262 260 253 248 244 240 237 234 232 233 233 232 231 230 228 227 226 226 226 227
289 290 290 289 289 289 291 295 291 289 287 286 286 288 285 282 281 280 277 274 271 269 268 267 265 261 258 252 246 242 237 236 234 234 234 233 232 230 230 228 228 227 227 228
287 288 287 288 288 288 295 294 291 287 286 284 284 285 285 283 281 279 277 275 272 268 267 267 266 263 259 254 248 243 239 237 235 235 234 233 231 230 230 229 227 227 228 231
284 285 286 286 287 289 293 294 292 288 286 283 283 284 283 282 279 278 277 275 273 270 267 265 265 263 259 255 249 244 240 237 235 234 232 232 231 230 229 228 227 228 230 231
284 284 285 285 286 289 293 291 289 287 286 284 283 283 282 282 280 276 275 275 273 270 268 267 267 265 259 254 248 244 239 236 235 233 231 231 229 227 227 227 228 228 228 229
284 284 283 283 284 286 291 288 287 286 286 285 285 284 282 280 279 277 275 274 272 270 269 267 266 264 259 254 249 244 240 237 235 234 232 230 227 226 226 228 230 229 228 229
283 283 282 281 281 285 285 284 283 283 282 284 284 283 282 279 277 276 275 274 273 271 269 267 266 263 259 253 249 245 241 238 236 234 233 231 229 228 228 229 231 231 230 231
281 282 281 280 280 282 281 281 281 281 282 282 282 282 281 278 276 275 275 274 272 271 268 266 264 261 257 253 248 244 241 239 237 234 232 232 231 231 230 231 230 231 231 233
281 280 280 280 280 280 279 279 280 281 282 283 283 283 280 277 275 276 275 274 273 272 268 264 262 259 256 252 248 244 242 239 237 235 234 234 233 233 233 233 232 232 233 234
281 280 281 280 280 278 276 276 277 279 281 282 282 281 279 276 274 275 275 274 274 273 270 267 262 258 254 250 248 245 242 239 238 235 235 235 235 233 230 231 233 232 234 236
280 280 280 280 279 277 276 274 275 278 281 282 281 279 278 277 275 275 274 273 273 273 270 267 263 257 253 249 246 244 242 239 237 235 234 233 232 233 231 230 232 233 233 234